Location: R�serve Fauniques des Laurentides
(47.3100°N, 71.1900°W)
Time: 02:45:45
(UTC-04:00)

Amateur Radio Satellites - All Passes

Search period start: 24 August 2016 02:15
Search period end: 25 August 2016 02:15
Location: R�serve Fauniques des Laurentides, 47.3100°N, 71.1900°W

Satellite Date Start Highest point End Downlink Frequencies (MHz)
Time Altitude Azimuth
BEESAT 24 Aug 02:21:49 02:26:35 81° 255° (WSW) 02:31:23 436.000
Cosmos 2499 24 Aug 02:22:04 02:24:16 12° 287° (WNW) 02:26:27 435.465 / 435.565
Gurwin Techsat 1B 24 Aug 02:27:05 02:32:09 42° 98° (E) 02:37:10 435.225
BUGSAT 1 24 Aug 02:42:57 02:44:50 13° 302° (WNW) 02:46:41 437.445
STARS 24 Aug 02:53:00 02:55:40 16° 59° (ENE) 02:58:20 437.465
ITAMSAT 1 24 Aug 02:56:45 03:01:01 25° 93° (E) 03:05:15 435.822/435.867
JAS-2 24 Aug 03:06:30 03:10:58 20° 303° (WNW) 03:15:46 435.910
ITUPSAT 1 24 Aug 03:07:05 03:11:20 32° 264° (W) 03:15:37 437.325
MOZHAYETS 4 24 Aug 03:13:53 03:18:19 52° 71° (ENE) 03:22:45
AO-7 24 Aug 03:14:59 03:21:20 24° 91° (E) 03:27:38 29.400- 29.500
SO-50 24 Aug 03:22:00 03:25:21 18° 331° (NNW) 03:28:41 436.795
Oscar 19 24 Aug 03:31:24 03:35:53 30° 297° (WNW) 03:40:20 437.125/150
KKS-1 24 Aug 03:39:18 03:43:48 77° 73° (ENE) 03:48:18 437.445
SWISSCUBE 24 Aug 03:44:53 03:47:18 14° 271° (W) 03:49:44 437.505
Cosmos 2491 24 Aug 03:46:46 03:52:42 19° 54° (NE) 03:58:36 435.465 / 435.565
RS-15 24 Aug 03:59:43 04:11:19 62° 318° (NW) 04:23:33 29.354- 29.394
BEESAT 24 Aug 04:04:43 04:05:09 10° 274° (W) 04:05:34 436.000
Gurwin Techsat 1B 24 Aug 04:07:21 04:11:57 31° 297° (WNW) 04:16:33 435.225
CUBESAT XI-V 24 Aug 04:22:31 04:26:42 36° 68° (ENE) 04:30:56 437.345
STARS 24 Aug 04:27:05 04:31:30 69° 256° (WSW) 04:35:58 437.465
ITAMSAT 1 24 Aug 04:35:45 04:40:44 48° 292° (WNW) 04:45:41 435.822/435.867
HORYU 2 24 Aug 04:50:49 04:53:42 17° 91° (E) 04:56:33 437.375
MOZHAYETS 4 24 Aug 04:52:31 04:55:47 19° 269° (W) 04:59:03
BRITE-PL 24 Aug 05:06:20 05:09:30 15° 86° (E) 05:12:40 437.365/2234.400
AO-7 24 Aug 05:06:43 05:15:05 85° 292° (WNW) 05:23:23 29.400- 29.500
YUBILEINY 24 Aug 05:09:20 05:14:50 19° 74° (ENE) 05:20:19 435.215
PHONESAT 2.4 24 Aug 05:15:56 05:18:14 20° 172° (S) 05:20:32 2401.200-2431.200
KKS-1 24 Aug 05:18:57 05:20:55 13° 272° (W) 05:22:53 437.445
NOAA 15 24 Aug 05:23:58 05:24:44 10° 85° (E) 05:25:30 137.62
AO-85 24 Aug 05:38:25 05:42:10 20° 112° (ESE) 05:45:48 145.980
STRAND 1 24 Aug 05:39:12 05:42:34 18° 58° (ENE) 05:45:55 437.568
Cosmos 2491 24 Aug 05:42:27 05:51:19 75° 78° (ENE) 06:00:09 435.465 / 435.565
LilacSat-2 24 Aug 05:50:42 05:51:10 10° 88° (E) 05:51:37 437.200
CUBESAT XI-V 24 Aug 06:00:13 06:04:09 28° 266° (W) 06:08:09 437.345
Cosmos 2504 24 Aug 06:07:50 06:11:40 14° 74° (ENE) 06:15:26 435.465 / 435.565
RS-15 24 Aug 06:16:05 06:26:51 35° 350° (N) 06:37:56 29.354- 29.394
HORYU 2 24 Aug 06:26:16 06:30:37 56° 289° (WNW) 06:34:56 437.375
Cubesat XI-IV 24 Aug 06:32:08 06:36:57 33° 96° (E) 06:41:44 437.490
GOMX 1 24 Aug 06:40:42 06:45:59 44° 97° (E) 06:51:03 467.674
BRITE-PL 24 Aug 06:42:59 06:48:42 88° 102° (ESE) 06:54:24 437.365/2234.400
CUTE-I 24 Aug 06:45:13 06:50:18 43° 99° (E) 06:55:20 437.470
SO-50 24 Aug 06:48:01 06:50:24 14° 21° (NNE) 06:52:44 436.795
NOAA 18 24 Aug 06:50:04 06:55:17 42° 99° (E) 07:00:27 137.9125
PHONESAT 2.4 24 Aug 06:51:48 06:54:05 20° 189° (S) 06:56:22 2401.200-2431.200
NOAA 15 24 Aug 07:00:06 07:05:26 73° 104° (ESE) 07:10:44 137.62
AO-7 24 Aug 07:00:29 07:06:49 25° 313° (NW) 07:13:07 29.400- 29.500
YUBILEINY 24 Aug 07:01:20 07:10:10 80° 96° (E) 07:19:02 435.215
DOVE 4 24 Aug 07:08:39 07:13:28 37° 95° (E) 07:18:03 437.250
STRAND 1 24 Aug 07:16:04 07:21:10 76° 257° (WSW) 07:26:18 437.568
AO-85 24 Aug 07:16:57 07:22:13 74° 309° (NW) 07:27:10 145.980
LilacSat-2 24 Aug 07:22:10 07:25:57 70° 286° (WNW) 07:29:42 437.200
PRISM 24 Aug 07:32:19 07:35:23 21° 63° (ENE) 07:38:29 437.425
Cosmos 2491 24 Aug 07:40:19 07:47:18 28° 280° (W) 07:54:20 435.465 / 435.565
HO-68 24 Aug 07:42:14 07:47:59 25° 91° (E) 07:53:40 435.675
Cosmos 2504 24 Aug 07:55:12 08:03:38 68° 94° (E) 08:11:30 435.465 / 435.565
Cubesat XI-IV 24 Aug 08:12:10 08:17:04 38° 294° (WNW) 08:21:56 437.490
GOMX 1 24 Aug 08:19:04 08:23:51 31° 296° (WNW) 08:28:31 467.674
CINEMA 3 24 Aug 08:19:31 08:24:04 49° 98° (E) 08:28:23 145.822/145.860
BRITE-PL 24 Aug 08:22:45 08:26:26 18° 302° (WNW) 08:30:09 437.365/2234.400
SEEDS 24 Aug 08:24:23 08:28:06 30° 95° (E) 08:31:49 437.485
CUTE-I 24 Aug 08:25:36 08:30:11 30° 297° (WNW) 08:34:45 437.470
SO-50 24 Aug 08:27:39 08:32:07 42° 44° (NE) 08:36:26 436.795
NOAA 18 24 Aug 08:30:59 08:35:49 33° 297° (WNW) 08:40:37 137.9125
RS-15 24 Aug 08:32:02 08:43:29 42° 24° (NNE) 08:54:59 29.354- 29.394
CANX-2 24 Aug 08:37:11 08:41:25 66° 101° (E) 08:45:37 2200.000
NOAA 15 24 Aug 08:40:57 08:44:40 20° 302° (WNW) 08:48:23 137.62
UNISAT 6 24 Aug 08:43:34 08:46:16 16° 60° (ENE) 08:48:56 437.425
CUTE 1.7 + AOD 2 24 Aug 08:44:08 08:48:22 68° 102° (ESE) 08:52:34 437.475
DOVE 4 24 Aug 08:46:27 08:51:05 33° 295° (WNW) 08:55:30 437.250
AO-85 24 Aug 08:59:48 09:03:27 19° 329° (NNW) 09:06:57 145.980
STRAND 1 24 Aug 09:00:36 09:01:13 10° 275° (W) 09:01:51 437.568
YUBILEINY 24 Aug 09:00:49 09:08:02 27° 299° (WNW) 09:15:17 435.215
AIST 1 24 Aug 09:04:26 09:07:48 22° 87° (E) 09:11:12
CUBEBUG 2 24 Aug 09:04:58 09:09:05 41° 98° (E) 09:13:03 437.445
PRISM 24 Aug 09:06:34 09:10:26 41° 261° (W) 09:14:22 437.425
AAUSAT CUBESAT 2 24 Aug 09:07:08 09:11:10 47° 99° (E) 09:15:11 437.432
COMPASS 1 24 Aug 09:11:02 09:15:12 66° 102° (ESE) 09:19:20 437.405
UWE-3 24 Aug 09:11:21 09:15:12 32° 96° (E) 09:18:57 435.000/436.395/437.385
Oscar 11 24 Aug 09:14:16 09:17:46 24° 93° (E) 09:21:16 145.826/435.025
FUNcube-1 24 Aug 09:16:17 09:19:36 22° 93° (E) 09:22:53 145.935
ANTELSAT 24 Aug 09:19:04 09:23:07 31° 67° (ENE) 09:27:06 437.575/2403.000
HO-68 24 Aug 09:29:10 09:36:20 72° 291° (WNW) 09:43:27 435.675
ZACube-1 24 Aug 09:35:04 09:38:59 37° 97° (E) 09:42:50 437.345
DELFI C3 24 Aug 09:45:37 09:48:43 21° 93° (E) 09:51:49 145.870
Cosmos 2504 24 Aug 09:50:23 09:57:35 31° 294° (WNW) 10:04:27 435.465 / 435.565
TIGRISAT 24 Aug 09:50:37 09:55:09 58° 72° (ENE) 09:59:38 435.000
CINEMA 3 24 Aug 09:57:20 10:00:51 21° 298° (WNW) 10:04:15 145.822/145.860
SEEDS 24 Aug 10:00:08 10:03:46 28° 293° (WNW) 10:07:22 437.485
QB50P1 24 Aug 10:06:21 10:08:57 16° 61° (ENE) 10:11:33 145.935-145.965
CUSAT 1 24 Aug 10:08:12 10:13:39 44° 73° (ENE) 10:20:24 437.405
SO-50 24 Aug 10:08:25 10:12:27 30° 244° (WSW) 10:16:22 436.795
BEESAT 3 24 Aug 10:10:44 10:13:33 19° 113° (ESE) 10:16:23 437.485
CANX-2 24 Aug 10:14:23 10:16:47 15° 299° (WNW) 10:19:12 2200.000
POPSAT HIP 1 24 Aug 10:15:29 10:18:30 19° 62° (ENE) 10:21:31 437.405
UNISAT 6 24 Aug 10:17:49 10:22:27 74° 258° (WSW) 10:27:02 437.425
CUTE 1.7 + AOD 2 24 Aug 10:21:21 10:23:42 15° 300° (WNW) 10:26:01 437.475
ISS 24 Aug 10:22:29 10:25:21 29° 142° (SE) 10:28:14 145.825
BUGSAT 1 24 Aug 10:26:40 10:27:38 11° 57° (ENE) 10:28:36 437.445
DANDE 24 Aug 10:27:49 10:31:35 23° 71° (ENE) 10:36:12 436.750
AIST 1 24 Aug 10:41:08 10:45:10 38° 286° (WNW) 10:49:17
CUBEBUG 2 24 Aug 10:42:09 10:45:28 22° 297° (WNW) 10:48:42 437.445
AAUSAT CUBESAT 2 24 Aug 10:43:24 10:46:20 19° 297° (WNW) 10:49:16 437.432
QB50P2 24 Aug 10:43:43 10:47:39 36° 69° (ENE) 10:51:36 145.880/145.840
RS-15 24 Aug 10:45:25 10:57:52 86° 53° (NE) 11:10:09 29.354- 29.394
POLYITAN 1 24 Aug 10:46:15 10:50:11 37° 69° (ENE) 10:54:09 437.675
DUCHIFAT 1 24 Aug 10:46:59 10:50:48 33° 68° (ENE) 10:54:39 145.980
COMPASS 1 24 Aug 10:47:57 10:50:16 15° 299° (WNW) 10:52:34 437.405
UWE-3 24 Aug 10:48:00 10:51:34 26° 294° (WNW) 10:55:03 435.000/436.395/437.385
Oscar 11 24 Aug 10:50:03 10:54:00 37° 291° (WNW) 10:57:58 145.826/435.025
FUNcube-1 24 Aug 10:52:08 10:55:59 36° 291° (WNW) 10:59:46 145.935
ANTELSAT 24 Aug 10:55:37 10:59:46 33° 264° (W) 11:03:54 437.575/2403.000
HUMSAT D 24 Aug 10:56:11 11:00:14 60° 101° (E) 11:04:16 437.325/437.525
NANOSAT C BR1 24 Aug 10:58:30 11:02:35 46° 70° (ENE) 11:06:40 145.865
ZACube-1 24 Aug 11:11:47 11:15:06 23° 295° (WNW) 11:18:22 437.345
Cosmos 2499 24 Aug 11:15:15 11:20:33 19° 78° (ENE) 11:25:36 435.465 / 435.565
GONETS M04 24 Aug 11:17:53 11:24:56 29° 80° (E) 11:32:02
HO-68 24 Aug 11:18:20 11:22:54 18° 312° (NW) 11:27:27 435.675
DELFI C3 24 Aug 11:20:00 11:23:41 36° 291° (WNW) 11:27:21 145.870
BEESAT 2 24 Aug 11:20:49 11:24:39 51° 121° (ESE) 11:28:31 435.950
TIGRISAT 24 Aug 11:29:05 11:32:11 18° 269° (W) 11:35:15 435.000
Oscar 19 24 Aug 11:35:29 11:38:13 15° 55° (NE) 11:40:58 437.125/150
JAS-2 24 Aug 11:36:41 11:41:42 55° 69° (ENE) 11:47:04 435.910
QB50P1 24 Aug 11:40:01 11:44:16 63° 258° (WSW) 11:48:32 145.935-145.965
AUBIESAT-1 24 Aug 11:42:13 11:46:11 37° 102° (ESE) 11:49:51 437.475
50 SAT 24 Aug 11:42:51 11:45:10 16° 92° (E) 11:47:29 437.505
M-CUBED/EXP-1 PRIME 24 Aug 11:44:18 11:48:31 48° 104° (ESE) 11:52:23 437.505
PCSat 24 Aug 11:45:37 11:49:05 18° 105° (ESE) 11:52:35 145.827
VELOX 1 24 Aug 11:45:53 11:49:14 20° 92° (E) 11:52:33 145.980
BEESAT 3 24 Aug 11:47:04 11:50:53 50° 312° (NW) 11:54:46 437.485
POPSAT HIP 1 24 Aug 11:49:45 11:53:56 51° 260° (W) 11:58:08 437.405
CUSAT 1 24 Aug 11:50:17 11:55:38 38° 266° (W) 12:02:09 437.405
CUBEBUG 1 24 Aug 11:57:52 12:01:52 32° 96° (E) 12:05:49 437.445
BUGSAT 1 24 Aug 11:58:01 12:02:17 81° 73° (ENE) 12:06:34 437.445
ISS 24 Aug 11:58:23 12:01:37 61° 340° (NNW) 12:04:52 145.825
ESTCUBE 1 24 Aug 12:09:07 12:13:38 61° 101° (E) 12:18:08 437.505/2401.250
DANDE 24 Aug 12:09:47 12:14:24 53° 262° (W) 12:20:31 436.750
Gurwin Techsat 1B 24 Aug 12:14:16 12:17:22 16° 55° (NE) 12:20:29 435.225
DX 1 24 Aug 12:16:14 12:20:00 27° 95° (E) 12:23:45 434.975-435.025
QB50P2 24 Aug 12:20:03 12:23:33 24° 266° (W) 12:27:04 145.880/145.840
POLYITAN 1 24 Aug 12:22:36 12:26:06 24° 266° (W) 12:29:36 437.675
DUCHIFAT 1 24 Aug 12:22:56 12:26:33 26° 265° (W) 12:30:10 145.980
AO-85 24 Aug 12:26:44 12:28:28 12° 18° (NNE) 12:30:08 145.980
AO-7 24 Aug 12:30:16 12:34:04 14° 35° (NE) 12:37:52 29.400- 29.500
HUMSAT D 24 Aug 12:33:03 12:35:25 15° 299° (WNW) 12:37:47 437.325/437.525
AISAT 24 Aug 12:33:41 12:38:09 62° 101° (ESE) 12:42:34 437.250
SPROUT 24 Aug 12:33:48 12:37:41 31° 96° (E) 12:41:30 437.525
NANOSAT C BR1 24 Aug 12:35:27 12:38:33 19° 268° (W) 12:41:39 145.865
RS-15 24 Aug 12:58:54 13:09:02 32° 257° (WSW) 13:19:04 29.354- 29.394
BEESAT 2 24 Aug 12:59:28 13:02:43 24° 321° (NW) 13:06:00 435.950
AIST 2 24 Aug 12:59:55 13:03:19 26° 116° (ESE) 13:06:47 435.215
UKube-1 24 Aug 13:03:49 13:08:09 65° 102° (ESE) 13:12:27 .
Cosmos 2499 24 Aug 13:04:25 13:12:41 89° 98° (E) 13:20:21 435.465 / 435.565
TISAT 1 24 Aug 13:07:46 13:10:33 17° 91° (E) 13:13:19 437.305
Oscar 19 24 Aug 13:11:36 13:16:45 84° 74° (ENE) 13:21:59 437.125/150
GONETS M04 24 Aug 13:12:13 13:20:57 72° 282° (WNW) 13:29:49
50 SAT 24 Aug 13:15:32 13:18:57 40° 289° (WNW) 13:22:22 437.505
AUBIESAT-1 24 Aug 13:16:58 13:20:27 25° 302° (WNW) 13:23:44 437.475
M-CUBED/EXP-1 PRIME 24 Aug 13:19:24 13:22:41 21° 304° (NW) 13:25:47 437.505
VELOX 1 24 Aug 13:21:38 13:25:57 47° 290° (WNW) 13:30:13 145.980
JAS-2 24 Aug 13:23:25 13:27:19 21° 270° (W) 13:31:23 435.910
PCSat 24 Aug 13:26:24 13:31:49 80° 304° (NW) 13:37:18 145.827
BEESAT 3 24 Aug 13:27:56 13:29:29 12° 333° (NNW) 13:31:04 437.485
CUBEBUG 1 24 Aug 13:34:13 13:38:05 30° 294° (WNW) 13:41:57 437.445
ISS 24 Aug 13:35:20 13:38:24 36° 1° (N) 13:41:28 145.825
BUGSAT 1 24 Aug 13:37:01 13:38:13 11° 273° (W) 13:39:25 437.445
ESTCUBE 1 24 Aug 13:46:58 13:50:00 18° 299° (WNW) 13:53:03 437.505/2401.250
Gurwin Techsat 1B 24 Aug 13:51:15 13:56:35 89° 76° (ENE) 14:01:57 435.225
DX 1 24 Aug 13:52:15 13:56:13 34° 293° (WNW) 14:00:11 434.975-435.025
SWISSCUBE 24 Aug 14:02:25 14:05:13 15° 89° (E) 14:08:02 437.505
AO-85 24 Aug 14:06:08 14:10:16 36° 42° (NE) 14:14:05 145.980
SPROUT 24 Aug 14:09:52 14:13:33 28° 294° (WNW) 14:17:12 437.525
AISAT 24 Aug 14:11:14 14:14:10 17° 300° (WNW) 14:17:05 437.250
AO-7 24 Aug 14:17:00 14:24:47 45° 58° (ENE) 14:32:34 29.400- 29.500
ITAMSAT 1 24 Aug 14:17:32 14:22:34 53° 69° (ENE) 14:27:37 435.822/435.867
O/OREOS (USA 219) 24 Aug 14:18:57 14:22:55 32° 106° (ESE) 14:26:57 437.305
BEESAT 24 Aug 14:19:28 14:22:59 20° 92° (E) 14:26:29 436.000
AIST 2 24 Aug 14:37:44 14:41:39 41° 314° (NW) 14:45:37 435.215
UKube-1 24 Aug 14:41:04 14:43:43 16° 300° (WNW) 14:46:21 .
TISAT 1 24 Aug 14:42:24 14:46:31 51° 289° (WNW) 14:50:35 437.305
Oscar 19 24 Aug 14:54:04 14:56:46 14° 272° (W) 14:59:29 437.125/150
Cosmos 2499 24 Aug 15:00:52 15:06:47 22° 299° (WNW) 15:12:28 435.465 / 435.565
ITUPSAT 1 24 Aug 15:03:36 15:08:15 50° 100° (E) 15:12:53 437.325
ISS 24 Aug 15:11:54 15:15:10 66° 21° (NNE) 15:18:24 145.825
PCSat 24 Aug 15:12:06 15:16:06 20° 326° (NW) 15:20:06 145.827
YUBILEINY 24 Aug 15:13:52 15:16:36 12° 44° (NE) 15:19:20 435.215
GONETS M04 24 Aug 15:13:57 15:19:39 18° 307° (NW) 15:25:25
KKS-1 24 Aug 15:29:13 15:30:50 12° 88° (E) 15:32:26 437.445
Gurwin Techsat 1B 24 Aug 15:34:39 15:37:17 14° 273° (W) 15:39:55 435.225
SWISSCUBE 24 Aug 15:38:46 15:43:31 70° 287° (WNW) 15:48:15 437.505
AO-85 24 Aug 15:46:50 15:50:37 30° 244° (WSW) 15:54:09 145.980
HORYU 2 24 Aug 15:51:33 15:55:09 24° 64° (ENE) 15:58:45 437.375
BEESAT 24 Aug 15:56:27 16:01:05 53° 290° (WNW) 16:05:42 436.000
O/OREOS (USA 219) 24 Aug 15:58:14 16:02:18 33° 305° (NW) 16:06:25 437.305
ITAMSAT 1 24 Aug 15:58:16 16:02:21 23° 267° (W) 16:06:27 435.822/435.867
AO-7 24 Aug 16:09:26 16:17:29 51° 259° (WSW) 16:25:35 29.400- 29.500
STARS 24 Aug 16:14:18 16:17:13 17° 91° (E) 16:20:05 437.465
GOMX 1 24 Aug 16:18:00 16:19:19 11° 52° (NE) 16:20:40 467.674
AIST 2 24 Aug 16:19:53 16:21:15 11° 337° (NNW) 16:22:35 435.215
BRITE-PL 24 Aug 16:20:11 16:23:45 21° 59° (ENE) 16:27:31 437.365/2234.400
Cubesat XI-IV 24 Aug 16:20:46 16:23:16 13° 53° (NE) 16:25:46 437.490
CUTE-I 24 Aug 16:32:52 16:36:09 17° 56° (NE) 16:39:27 437.470
NOAA 18 24 Aug 16:41:11 16:45:01 20° 56° (ENE) 16:48:53 137.9125
ITUPSAT 1 24 Aug 16:42:05 16:45:47 23° 298° (WNW) 16:49:29 437.325
MOZHAYETS 4 24 Aug 16:42:28 16:47:03 80° 103° (ESE) 16:51:37
NOAA 15 24 Aug 16:45:06 16:49:19 25° 61° (ENE) 16:53:34 137.62
ISS 24 Aug 16:48:36 16:51:23 26° 219° (SW) 16:54:08 145.825
Cosmos 2491 24 Aug 16:55:25 17:00:28 17° 73° (ENE) 17:05:30 435.465 / 435.565
KKS-1 24 Aug 17:03:30 17:08:00 82° 286° (WNW) 17:12:28 437.445
YUBILEINY 24 Aug 17:07:47 17:16:15 48° 71° (ENE) 17:24:34 435.215
SWISSCUBE 24 Aug 17:19:16 17:20:27 11° 306° (NW) 17:21:38 437.505
HORYU 2 24 Aug 17:27:16 17:31:30 41° 261° (W) 17:35:44 437.375
Cosmos 2504 24 Aug 17:44:43 17:50:51 27° 64° (ENE) 17:56:48 435.465 / 435.565
STARS 24 Aug 17:49:36 17:53:55 55° 289° (WNW) 17:58:12 437.465
CINEMA 3 24 Aug 17:50:32 17:51:55 11° 55° (NE) 17:53:18 145.822/145.860
GOMX 1 24 Aug 17:51:18 17:56:15 60° 72° (ENE) 18:01:32 467.674
CUBESAT XI-V 24 Aug 17:52:29 17:57:08 58° 100° (E) 18:01:46 437.345
BRITE-PL 24 Aug 17:56:59 18:01:41 62° 260° (W) 18:06:52 437.365/2234.400
Cubesat XI-IV 24 Aug 17:57:07 18:02:27 74° 72° (ENE) 18:07:48 437.490
BEESAT 2 24 Aug 17:58:48 18:01:26 17° 33° (NNE) 18:04:04 435.950
LilacSat-2 24 Aug 18:06:41 18:10:32 88° 84° (E) 18:14:24 437.200
CUTE-I 24 Aug 18:10:09 18:15:31 87° 256° (WSW) 18:20:54 437.470
HO-68 24 Aug 18:14:36 18:20:30 29° 55° (NE) 18:26:24 435.675
DOVE 4 24 Aug 18:16:16 18:21:14 51° 70° (ENE) 18:26:22 437.250
NOAA 18 24 Aug 18:19:32 18:25:05 78° 255° (WSW) 18:30:39 137.9125
MOZHAYETS 4 24 Aug 18:21:12 18:23:37 14° 302° (WNW) 18:26:02
NOAA 15 24 Aug 18:23:39 18:28:47 53° 260° (W) 18:33:57 137.62
BEESAT 3 24 Aug 18:23:52 18:27:32 35° 44° (NE) 18:31:13 437.485
KKS-1 24 Aug 18:42:17 18:43:50 12° 304° (NW) 18:45:21 437.445
PCSat 24 Aug 18:45:55 18:47:54 12° 19° (NNE) 18:49:53 145.827
Cosmos 2491 24 Aug 18:47:03 18:55:44 76° 95° (E) 19:04:30 435.465 / 435.565
YUBILEINY 24 Aug 19:04:51 19:13:01 45° 273° (W) 19:21:05 435.215
SEEDS 24 Aug 19:19:04 19:22:44 31° 68° (ENE) 19:26:26 437.485
CINEMA 3 24 Aug 19:23:09 19:28:08 66° 73° (ENE) 19:33:06 145.822/145.860
STRAND 1 24 Aug 19:23:39 19:28:04 29° 95° (E) 19:32:28 437.568
CUBESAT XI-V 24 Aug 19:30:46 19:34:06 20° 299° (WNW) 19:37:29 437.345
GOMX 1 24 Aug 19:31:04 19:34:47 20° 271° (W) 19:38:41 467.674
CANX-2 24 Aug 19:32:41 19:36:52 68° 74° (ENE) 19:41:03 2200.000
BEESAT 2 24 Aug 19:35:50 19:39:52 87° 53° (NE) 19:43:52 435.950
Cosmos 2504 24 Aug 19:37:38 19:44:52 64° 267° (W) 19:51:54 435.465 / 435.565
CUTE 1.7 + AOD 2 24 Aug 19:39:31 19:43:42 70° 73° (ENE) 19:47:53 437.475
Cubesat XI-IV 24 Aug 19:39:40 19:43:06 17° 271° (W) 19:46:33 437.490
AIST 2 24 Aug 19:40:19 19:42:11 13° 26° (NNE) 19:44:04 435.215
CUTE-I 24 Aug 19:53:58 19:56:21 13° 273° (W) 19:58:44 437.470
DOVE 4 24 Aug 19:55:01 19:59:12 25° 269° (W) 20:03:29 437.250
AAUSAT CUBESAT 2 24 Aug 20:00:10 20:04:05 46° 71° (ENE) 20:08:02 437.432
HO-68 24 Aug 20:00:28 20:07:39 72° 255° (WSW) 20:14:53 435.675
BEESAT 3 24 Aug 20:01:41 20:05:09 29° 243° (WSW) 20:08:35 437.485
COMPASS 1 24 Aug 20:04:29 20:08:34 65° 74° (ENE) 20:12:41 437.405
NOAA 18 24 Aug 20:04:34 20:06:38 12° 274° (W) 20:08:42 137.9125
CUBEBUG 2 24 Aug 20:05:20 20:09:55 53° 72° (ENE) 20:14:25 437.445
UWE-3 24 Aug 20:10:45 20:15:05 41° 70° (ENE) 20:19:19 435.000/436.395/437.385
Oscar 11 24 Aug 20:11:57 20:15:37 28° 66° (ENE) 20:19:18 145.826/435.025
FUNcube-1 24 Aug 20:14:26 20:18:14 28° 67° (ENE) 20:22:00 145.935
PCSat 24 Aug 20:28:08 20:33:03 33° 43° (NE) 20:37:56 145.827
ZACube-1 24 Aug 20:33:22 20:37:38 45° 71° (ENE) 20:41:51 437.345
DELFI C3 24 Aug 20:34:48 20:37:41 20° 64° (ENE) 20:40:34 145.870
AIST 1 24 Aug 20:44:19 20:48:45 73° 79° (ENE) 20:53:09
PRISM 24 Aug 20:45:12 20:48:22 21° 93° (E) 20:51:32 437.425
Cosmos 2491 24 Aug 20:46:18 20:53:32 28° 298° (WNW) 21:00:51 435.465 / 435.565
SEEDS 24 Aug 20:54:55 20:58:27 27° 265° (W) 21:02:01 437.485
AUBIESAT-1 24 Aug 20:58:25 21:00:45 14° 51° (NE) 21:03:03 437.475
M-CUBED/EXP-1 PRIME 24 Aug 21:00:13 21:03:12 17° 53° (NE) 21:06:11 437.505
CINEMA 3 24 Aug 21:02:18 21:05:42 18° 271° (W) 21:09:05 145.822/145.860
STRAND 1 24 Aug 21:02:36 21:07:22 41° 293° (WNW) 21:12:08 437.568
CANX-2 24 Aug 21:11:19 21:13:12 13° 272° (W) 21:15:05 2200.000
BEESAT 2 24 Aug 21:15:54 21:17:03 11° 251° (WSW) 21:18:12 435.950
AIST 2 24 Aug 21:17:34 21:21:39 49° 47° (NE) 21:25:44 435.215
CUTE 1.7 + AOD 2 24 Aug 21:18:16 21:20:02 12° 272° (W) 21:21:47 437.475
GONETS M04 24 Aug 21:22:58 21:28:37 18° 53° (NE) 21:34:13
Cosmos 2504 24 Aug 21:34:46 21:36:35 11° 289° (WNW) 21:38:23 435.465 / 435.565
AAUSAT CUBESAT 2 24 Aug 21:37:02 21:39:50 18° 269° (W) 21:42:38 437.432
ESTCUBE 1 24 Aug 21:38:28 21:39:52 11° 56° (NE) 21:41:17 437.505/2401.250
COMPASS 1 24 Aug 21:42:40 21:44:34 13° 271° (W) 21:46:29 437.405
CUBEBUG 2 24 Aug 21:43:25 21:46:49 20° 269° (W) 21:50:12 437.445
Oscar 11 24 Aug 21:47:48 21:51:40 32° 264° (W) 21:55:34 145.826/435.025
UWE-3 24 Aug 21:47:58 21:51:40 24° 267° (W) 21:55:21 435.000/436.395/437.385
HUMSAT D 24 Aug 21:50:05 21:54:13 62° 73° (ENE) 21:58:18 437.325/437.525
FUNcube-1 24 Aug 21:50:21 21:54:24 33° 264° (W) 21:58:25 145.935
HO-68 24 Aug 21:53:08 21:56:38 14° 275° (W) 22:00:10 435.675
AISAT 24 Aug 22:01:02 22:02:28 11° 56° (NE) 22:03:54 437.250
UNISAT 6 24 Aug 22:07:26 22:10:23 18° 91° (E) 22:13:17 437.425
DELFI C3 24 Aug 22:08:35 22:12:16 39° 262° (W) 22:16:01 145.870
ZACube-1 24 Aug 22:10:44 22:14:07 21° 268° (W) 22:17:29 437.345
PCSat 24 Aug 22:11:26 22:16:41 50° 244° (WSW) 22:21:53 145.827
PRISM 24 Aug 22:19:55 22:23:51 41° 291° (WNW) 22:27:46 437.425
AIST 1 24 Aug 22:23:55 22:25:43 12° 278° (W) 22:27:31
50 SAT 24 Aug 22:24:06 22:25:43 13° 61° (ENE) 22:27:20 437.505
UKube-1 24 Aug 22:28:48 22:30:02 11° 56° (NE) 22:31:17 .
AUBIESAT-1 24 Aug 22:29:50 22:34:28 81° 70° (ENE) 22:39:07 437.475
M-CUBED/EXP-1 PRIME 24 Aug 22:32:26 22:37:07 82° 251° (WSW) 22:41:52 437.505
ANTELSAT 24 Aug 22:43:45 22:47:50 40° 98° (E) 22:51:51 437.575/2403.000
VELOX 1 24 Aug 22:46:01 22:49:44 27° 65° (ENE) 22:53:30 145.980
O/OREOS (USA 219) 24 Aug 22:46:45 22:49:48 17° 47° (NE) 22:52:50 437.305
Cosmos 2499 24 Aug 22:52:07 22:58:37 36° 69° (ENE) 23:05:00 435.465 / 435.565
CUBEBUG 1 24 Aug 22:56:36 23:00:40 39° 69° (ENE) 23:04:48 437.445
AIST 2 24 Aug 22:56:38 22:59:52 22° 246° (WSW) 23:03:06 435.215
ESTCUBE 1 24 Aug 23:11:27 23:15:55 80° 75° (ENE) 23:20:27 437.505/2401.250
DX 1 24 Aug 23:14:31 23:18:30 35° 67° (ENE) 23:22:30 434.975-435.025
TIGRISAT 24 Aug 23:15:34 23:19:55 81° 103° (ESE) 23:24:11 435.000
CUSAT 1 24 Aug 23:17:55 23:19:47 16° 86° (E) 23:21:54 437.405
GONETS M04 24 Aug 23:18:30 23:27:23 70° 77° (ENE) 23:36:12
QB50P1 24 Aug 23:22:36 23:25:22 17° 91° (E) 23:28:05 145.935-145.965
HUMSAT D 24 Aug 23:28:06 23:30:14 14° 270° (W) 23:32:22 437.325/437.525
SPROUT 24 Aug 23:30:08 23:34:05 36° 68° (ENE) 23:38:04 437.525
POPSAT HIP 1 24 Aug 23:31:57 23:35:08 20° 92° (E) 23:38:17 437.405
AISAT 24 Aug 23:33:44 23:38:11 81° 75° (ENE) 23:42:41 437.250
UNISAT 6 24 Aug 23:43:12 23:47:25 50° 289° (WNW) 23:51:33 437.425
50 SAT 24 Aug 23:55:20 23:58:52 57° 259° (W) 00:02:25 437.505
QB50P2 25 Aug 00:00:52 00:04:56 43° 99° (E) 00:08:57 145.880/145.840
UKube-1 25 Aug 00:01:02 00:05:20 82° 76° (ENE) 00:09:43 .
TISAT 1 25 Aug 00:02:19 00:05:29 21° 63° (ENE) 00:08:38 437.305
DUCHIFAT 1 25 Aug 00:03:10 00:07:07 37° 98° (E) 00:11:01 145.980
POLYITAN 1 25 Aug 00:03:25 00:07:28 43° 99° (E) 00:11:29 437.675
AUBIESAT-1 25 Aug 00:07:04 00:09:25 14° 266° (W) 00:11:48 437.475
M-CUBED/EXP-1 PRIME 25 Aug 00:11:01 00:12:18 11° 269° (W) 00:13:35 437.505
NANOSAT C BR1 25 Aug 00:15:11 00:19:20 54° 100° (E) 00:23:27 145.865
ANTELSAT 25 Aug 00:20:56 00:24:21 23° 296° (WNW) 00:27:42 437.575/2403.000
VELOX 1 25 Aug 00:22:00 00:26:05 36° 263° (W) 00:30:13 145.980
SO-50 25 Aug 00:24:35 00:29:09 41° 119° (ESE) 00:33:40 436.795
O/OREOS (USA 219) 25 Aug 00:25:11 00:29:47 77° 247° (WSW) 00:34:22 437.305
JAS-2 25 Aug 00:25:14 00:31:27 42° 97° (E) 00:38:19 435.910
CUBEBUG 1 25 Aug 00:33:31 00:37:05 24° 267° (W) 00:40:42 437.445
ITUPSAT 1 25 Aug 00:38:50 00:40:55 13° 55° (NE) 00:42:59 437.325
Cosmos 2499 25 Aug 00:45:11 00:51:54 46° 270° (W) 00:58:33 435.465 / 435.565
DX 1 25 Aug 00:51:06 00:54:45 26° 265° (W) 00:58:28 434.975-435.025
ESTCUBE 1 25 Aug 00:51:36 00:53:20 12° 273° (W) 00:55:03 437.505/2401.250
TIGRISAT 25 Aug 00:54:03 00:55:59 13° 302° (WNW) 00:57:54 435.000
QB50P1 25 Aug 00:57:19 01:01:27 52° 289° (WNW) 01:05:32 145.935-145.965
CUSAT 1 25 Aug 00:59:12 01:01:34 22° 294° (WNW) 01:04:21 437.405
SPROUT 25 Aug 01:06:35 01:10:07 24° 266° (W) 01:13:41 437.525
POPSAT HIP 1 25 Aug 01:07:06 01:11:07 42° 290° (WNW) 01:15:05 437.405
SWISSCUBE 25 Aug 01:11:29 01:15:25 26° 63° (ENE) 01:19:21 437.505
BUGSAT 1 25 Aug 01:12:03 01:16:15 90° 356° (N) 01:20:22 437.445
RS-15 25 Aug 01:13:02 01:23:20 40° 107° (ESE) 01:34:07 29.354- 29.394
AISAT 25 Aug 01:13:33 01:15:14 12° 272° (W) 01:16:57 437.250
GONETS M04 25 Aug 01:16:11 01:23:29 30° 279° (W) 01:30:45
Oscar 19 25 Aug 01:20:32 01:24:41 23° 92° (E) 01:28:48 437.125/150
DANDE 25 Aug 01:24:55 01:27:16 31° 287° (WNW) 01:29:48 436.750
BEESAT 25 Aug 01:28:35 01:32:51 34° 66° (ENE) 01:37:06 436.000
TISAT 1 25 Aug 01:36:45 01:40:50 45° 261° (W) 01:44:57 437.305
QB50P2 25 Aug 01:37:16 01:40:29 21° 297° (WNW) 01:43:41 145.880/145.840
DUCHIFAT 1 25 Aug 01:39:17 01:42:38 23° 296° (WNW) 01:45:58 145.980
POLYITAN 1 25 Aug 01:39:50 01:43:01 21° 297° (WNW) 01:46:10 437.675
UKube-1 25 Aug 01:40:42 01:41:59 11° 272° (W) 01:43:16 .
NANOSAT C BR1 25 Aug 01:51:52 01:54:41 18° 298° (WNW) 01:57:28 145.865
Gurwin Techsat 1B 25 Aug 02:04:39 02:09:11 28° 94° (E) 02:13:42 435.225
SO-50 25 Aug 02:05:12 02:09:42 36° 318° (NW) 02:14:09 436.795
